EA5AFP-10 Weather Reports


Display with metric or nautical units.
time (UTC)temp
F
wind
direction
speed
MPH
gust
MPH
rain 1hr
in
rain 24hr
in
rain mn
in
humidity
%
barometer
mb
20260902125611 84 135 10.0 15.0 0.00 0.00 0.00 7 1015.6
20260902125416 84 67 12.0 15.0 0.00 0.00 0.00 7 1015.7
20260902124943 84 67 12.0 15.0 0.00 0.00 0.00 7 1015.6
20260902124535 84 112 9.0 15.0 0.00 0.00 0.00 7 1015.4
20260902124133 84 112 10.0 15.0 0.00 0.00 0.00 7 1015.6
20260902124013 84 112 10.0 15.0 0.00 0.00 0.00 7 1015.7
20260902123732 84 67 10.0 15.0 0.00 0.00 0.00 7 1015.8
20260902123321 84 112 9.0 12.0 0.00 0.00 0.00 7 1015.8
20260902123125 84 112 9.0 12.0 0.00 0.00 0.00 7 1015.8
20260902122847 84 67 6.0 10.0 0.00 0.00 0.00 7 1015.7
20260902122419 84 90 10.0 13.0 0.00 0.00 0.00 7 1015.7
20260902122305 84 67 9.0 15.0 0.00 0.00 0.00 7 1015.6
20260902122006 84 90 12.0 17.0 0.00 0.00 0.00 7 1015.7
20260902121510 84 90 12.0 17.0 0.00 0.00 0.00 7 1015.8
20260902121437 84 67 10.0 13.0 0.00 0.00 0.00 7 1016.0
20260902121043 0 0 0.0 0.0 0.00 0.00 0.00 100
20260902120605 83 112 11.0 15.0 0.00 0.00 0.00 8 1015.8
20260902120547 83 112 11.0 15.0 0.00 0.00 0.00 8 1015.9
20260902120122 83 112 11.0 15.0 0.00 0.00 0.00 8 1016.1
20260902115658 83 112 11.0 15.0 0.00 0.00 0.00 8 1015.9
20260902115656 83 112 11.0 15.0 0.00 0.00 0.00 8 1015.9
20260902115529 83 112 11.0 15.0 0.00 0.00 0.00 8 1015.9
20260902115103 83 67 11.0 15.0 0.00 0.00 0.00 8 1015.9
20260902114617 83 90 11.0 15.0 0.00 0.00 0.00 7 1016.0
20260902114144 83 90 10.0 17.0 0.00 0.00 0.00 8 1016.1
20260902113655 84 90 8.0 11.0 0.00 0.00 0.00 7 1016.0
20260902113207 84 112 9.0 11.0 0.00 0.00 0.00 7 1016.1
20260902112753 84 67 7.0 11.0 0.00 0.00 0.00 7 1016.0
20260902112407 83 90 10.0 13.0 0.00 0.00 0.00 7 1015.9
20260902111914 84 67 11.0 15.0 0.00 0.00 0.00 7 1016.0
20260902111437 84 112 9.0 13.0 0.00 0.00 0.00 7 1016.0
20260902111006 83 112 10.0 15.0 0.00 0.00 0.00 7 1016.2
20260902110547 83 67 9.0 11.0 0.00 0.00 0.00 7 1016.0
20260902110121 83 67 8.0 11.0 0.00 0.00 0.00 7 1016.1
20260902105657 82 67 10.0 13.0 0.00 0.00 0.00 8 1016.2
20260902105416 83 67 9.0 12.0 0.00 0.00 0.00 7 1016.1
20260902105008 83 90 9.0 11.0 0.00 0.00 0.00 7 1016.0
20260902104530 82 90 10.0 15.0 0.00 0.00 0.00 7 1016.1
20260902104059 83 90 9.0 12.0 0.00 0.00 0.00 7 1016.0
20260902103657 83 67 9.0 12.0 0.00 0.00 0.00 7 1016.2
20260902103640 83 67 9.0 12.0 0.00 0.00 0.00 7 1016.2
20260902103214 83 67 7.0 9.0 0.00 0.00 0.00 7 1016.2
20260902102751 83 90 9.0 12.0 0.00 0.00 0.00 7 1016.2
20260902102255 83 67 7.0 10.0 0.00 0.00 0.00 7 1016.2
20260902101851 83 67 9.0 11.0 0.00 0.00 0.00 7 1016.3
20260902101437 83 90 5.0 6.0 0.00 0.00 0.00 7 1016.2
20260902101006 82 67 7.0 10.0 0.00 0.00 0.00 7 1016.3
20260902100604 83 90 7.0 11.0 0.00 0.00 0.00 7 1016.3
20260902100547 83 67 3.0 6.0 0.00 0.00 0.00 7 1016.4
20260902100121 83 112 9.0 12.0 0.00 0.00 0.00 7 1016.3
20260902095657 83 90 7.0 12.0 0.00 0.00 0.00 7 1016.2
20260902095344 82 90 9.0 12.0 0.00 0.00 0.00 7 1016.2
20260902094926 83 112 8.0 12.0 0.00 0.00 0.00 7 1016.1
20260902094505 83 90 6.0 10.0 0.00 0.00 0.00 7 1016.3
20260902094040 82 90 5.0 8.0 0.00 0.00 0.00 7 1016.2
20260902093610 82 90 9.0 11.0 0.00 0.00 0.00 7 1016.1
20260902093125 82 67 6.0 8.0 0.00 0.00 0.00 7 1016.2
20260902092700 82 90 7.0 9.0 0.00 0.00 0.00 7 1016.2
20260902092248 82 90 6.0 9.0 0.00 0.00 0.00 7 1016.0
20260902091811 83 112 2.0 3.0 0.00 0.00 0.00 7 1016.1
20260902091339 82 112 3.0 4.0 0.00 0.00 0.00 8 1016.1
20260902090936 82 22 5.0 8.0 0.00 0.00 0.00 8 1016.1
20260902090526 82 67 4.0 8.0 0.00 0.00 0.00 8 1016.1
20260902090110 81 112 3.0 6.0 0.00 0.00 0.00 8 1016.3
20260902085700 81 67 4.0 6.0 0.00 0.00 0.00 8 1016.2
20260902085659 81 67 4.0 6.0 0.00 0.00 0.00 8 1016.2
20260902085508 80 67 6.0 8.0 0.00 0.00 0.00 8 1016.1
20260902085306 80 112 6.0 9.0 0.00 0.00 0.00 8 1016.2
20260902085009 80 90 7.0 10.0 0.00 0.00 0.00 8 1016.1
20260902084532 80 90 8.0 11.0 0.00 0.00 0.00 8 1016.1
20260902084400 80 90 5.0 6.0 0.00 0.00 0.00 8 1016.3
20260902084054 80 112 6.0 9.0 0.00 0.00 0.00 8 1016.4
20260902083611 80 112 3.0 4.0 0.00 0.00 0.00 8 1016.3
20260902083532 81 90 3.0 6.0 0.00 0.00 0.00 8 1016.2
20260902083118 80 112 6.0 8.0 0.00 0.00 0.00 8 1016.1
20260902082706 80 90 3.0 4.0 0.00 0.00 0.00 8 1016.1
20260902082504 80 112 3.0 4.0 0.00 0.00 0.00 8 1016.1
20260902082432 80 112 3.0 4.0 0.00 0.00 0.00 8 1016.1
20260902081936 80 90 2.0 3.0 0.00 0.00 0.00 8 1015.8
20260902081519 80 0 0.0 1.0 0.00 0.00 0.00 8 1015.9
20260902081034 79 0 0.0 1.0 0.00 0.00 0.00 8 1015.9
20260902080650 78 270 1.0 2.0 0.00 0.00 0.00 8 1015.7
20260902080617 78 270 1.0 2.0 0.00 0.00 0.00 8 1015.7
20260902080152 78 292 1.0 2.0 0.00 0.00 0.00 8 1015.7
20260902075659 77 0 0.0 1.0 0.00 0.00 0.00 8 1015.8
20260902075657 77 0 0.0 1.0 0.00 0.00 0.00 8 1015.8
20260902075429 77 0 0.0 1.0 0.00 0.00 0.00 8 1015.7
20260902074932 77 270 1.0 2.0 0.00 0.00 0.00 8 1015.7
20260902074514 77 0 0.0 0.0 0.00 0.00 0.00 8 1015.6
20260902074031 77 270 0.0 1.0 0.00 0.00 0.00 8 1015.7
20260902073614 77 270 0.0 1.0 0.00 0.00 0.00 8 1015.7
20260902073148 76 0 0.0 1.0 0.00 0.00 0.00 8 1015.6
20260902072654 77 0 0.0 1.0 0.00 0.00 0.00 8 1015.6
20260902072556 77 0 0.0 1.0 0.00 0.00 0.00 8 1015.6
20260902072317 77 0 0.0 0.0 0.00 0.00 0.00 8 1015.5
20260902071905 76 0 0.0 1.0 0.00 0.00 0.00 8 1015.4
20260902071621 76 270 0.0 1.0 0.00 0.00 0.00 9 1015.4
20260902071451 75 292 0.0 1.0 0.00 0.00 0.00 9 1015.4
20260902071008 75 292 0.0 1.0 0.00 0.00 0.00 9 1015.4
20260902070621 74 292 1.0 2.0 0.00 0.00 0.00 9 1015.4
20260902070549 73 292 2.0 2.0 0.00 0.00 0.00 9 1015.5
20260902070124 73 292 2.0 2.0 0.00 0.00 0.00 9 1015.5
20260902065630 73 292 1.0 2.0 0.00 0.00 0.00 9 1015.3
20260902065418 73 292 1.0 2.0 0.00 0.00 0.00 9 1015.3
20260902064955 72 292 1.0 2.0 0.00 0.00 0.00 9 1015.2
20260902064530 72 292 0.0 1.0 0.00 0.00 0.00 9 1015.3
20260902064055 72 292 2.0 2.0 0.00 0.00 0.00 9 1015.2
20260902063653 72 270 1.0 2.0 0.00 0.00 0.00 9 1015.0
20260902063210 72 270 1.0 2.0 0.00 0.00 0.00 9 1015.1
20260902062745 72 270 1.0 2.0 0.00 0.00 0.00 9 1014.9
20260902062309 72 315 0.0 2.0 0.00 0.00 0.00 9 1014.9
20260902061856 72 315 2.0 2.0 0.00 0.00 0.00 9 1015.0
20260902061443 72 315 1.0 2.0 0.00 0.00 0.00 9 1015.0
20260902060957 72 292 0.0 1.0 0.00 0.00 0.00 9 1014.9
20260902060541 71 292 2.0 3.0 0.00 0.00 0.00 9 1014.8
20260902060116 71 270 3.0 4.0 0.00 0.00 0.00 9 1014.8
20260902055621 71 270 2.0 3.0 0.00 0.00 0.00 9 1014.7
20260902055241 71 270 2.0 3.0 0.00 0.00 0.00 9 1014.8
20260902054802 71 270 3.0 3.0 0.00 0.00 0.00 9 1014.7
20260902054337 71 270 2.0 3.0 0.00 0.00 0.00 9 1014.7
20260902053914 71 292 2.0 3.0 0.00 0.00 0.00 9 1015.0
20260902053451 71 270 1.0 2.0 0.00 0.00 0.00 9 1014.9
20260902053042 71 292 1.0 2.0 0.00 0.00 0.00 9 1014.8
20260902052633 70 292 1.0 2.0 0.00 0.00 0.00 9 1014.6
20260902052256 70 292 1.0 2.0 0.00 0.00 0.00 9 1014.6
20260902051805 71 315 2.0 2.0 0.00 0.00 0.00 9 1014.7
20260902051355 71 292 2.0 2.0 0.00 0.00 0.00 9 1014.5
20260902050936 71 292 1.0 2.0 0.00 0.00 0.00 9 1014.5
20260902050904 71 292 1.0 2.0 0.00 0.00 0.00 9 1014.5
20260902050413 71 315 1.0 2.0 0.00 0.00 0.00 9 1014.5
20260902050028 71 292 1.0 2.0 0.00 0.00 0.00 9 1014.5
20260902045943 71 292 1.0 2.0 0.00 0.00 0.00 9 1014.5
20260902045524 71 225 1.0 1.0 0.00 0.00 0.00 9 1014.6
20260902045120 71 247 0.0 2.0 0.00 0.00 0.00 9 1014.5
20260902045043 71 247 0.0 2.0 0.00 0.00 0.00 9 1014.5
20260902044650 0 0 0.0 0.0 0.00 0.00 0.00 100
20260902044207 0 0 0.0 0.0 0.00 0.00 0.00 100
20260902043750 0 0 0.0 0.0 0.00 0.00 0.00 100
20260902043330 0 0 0.0 0.0 0.00 0.00 0.00 100
20260902043249 0 0 0.0 0.0 0.00 0.00 0.00 100
20260902042835 0 0 0.0 0.0 0.00 0.00 0.00 100
20260902042404 0 0 0.0 0.0 0.00 0.00 0.00 100
20260902041913 0 0 0.0 0.0 0.00 0.00 0.00 100
20260902041556 0 0 0.0 0.0 0.00 0.00 0.00 100
20260902041431 0 0 0.0 0.0 0.00 0.00 0.00 100
20260902041012 71 292 1.0 2.0 0.00 0.00 0.00 9 1014.3
20260902040610 71 292 1.0 2.0 0.00 0.00 0.00 9 1014.2
20260902040558 71 292 1.0 2.0 0.00 0.00 0.00 9 1014.3
20260902040126 71 292 1.0 2.0 0.00 0.00 0.00 9 1014.3
20260902035701 71 315 2.0 2.0 0.00 0.00 0.00 9 1014.4
20260902035212 71 292 1.0 2.0 0.00 0.00 0.00 9 1014.4
20260902034722 71 292 0.0 1.0 0.00 0.00 0.00 9 1014.2
20260902034249 71 292 2.0 2.0 0.00 0.00 0.00 9 1014.4
20260902033841 71 292 2.0 3.0 0.00 0.00 0.00 9 1014.4
20260902033353 72 247 2.0 3.0 0.00 0.00 0.00 9 1014.4
20260902032854 0 0 0.0 0.0 0.00 0.00 0.00 100
20260902032506 0 0 0.0 0.0 0.00 0.00 0.00 100
20260902032357 72 0 0.0 0.0 0.00 0.00 0.00 9 1014.4
20260902031939 72 0 0.0 0.0 0.00 0.00 0.00 9 1014.5
20260902031519 72 0 0.0 0.0 0.00 0.00 0.00 9 1014.5
20260902031035 71 0 0.0 0.0 0.00 0.00 0.00 9 1014.5
20260902030652 71 0 0.0 0.0 0.00 0.00 0.00 9 1014.5
20260902030619 71 0 0.0 0.0 0.00 0.00 0.00 9 1014.5
20260902030154 72 270 1.0 2.0 0.00 0.00 0.00 9 1014.6
20260902025701 72 270 3.0 3.0 0.00 0.00 0.00 9 1014.6
20260902025659 72 270 3.0 3.0 0.00 0.00 0.00 9 1014.6
20260902025359 72 270 3.0 3.0 0.00 0.00 0.00 9 1014.6
20260902024958 72 270 3.0 3.0 0.00 0.00 0.00 9 1014.6
20260902024528 72 225 1.0 2.0 0.00 0.00 0.00 9 1014.7
20260902024124 72 247 2.0 2.0 0.00 0.00 0.00 9 1014.8
20260902023704 73 270 1.0 2.0 0.00 0.00 0.00 9 1014.6
20260902023239 73 292 0.0 1.0 0.00 0.00 0.00 9 1014.7
20260902022744 72 292 2.0 2.0 0.00 0.00 0.00 9 1014.8
20260902022419 72 292 1.0 2.0 0.00 0.00 0.00 9 1014.6
20260902021956 72 270 2.0 3.0 0.00 0.00 0.00 9 1014.7
20260902021508 72 270 2.0 2.0 0.00 0.00 0.00 9 1014.6
20260902021019 72 270 1.0 1.0 0.00 0.00 0.00 9 1014.5
20260902020616 72 270 1.0 2.0 0.00 0.00 0.00 9 1014.5
20260902020124 72 292 2.0 3.0 0.00 0.00 0.00 9 1014.6
20260902015659 73 270 2.0 3.0 0.00 0.00 0.00 9 1014.5
20260902015356 73 270 2.0 3.0 0.00 0.00 0.00 9 1014.5
20260902015321 73 270 2.0 3.0 0.00 0.00 0.00 9 1014.5
20260902014924 73 247 2.0 2.0 0.00 0.00 0.00 9 1014.5
20260902014435 73 292 2.0 3.0 0.00 0.00 0.00 9 1014.6
20260902014034 74 270 1.0 2.0 0.00 0.00 0.00 9 1014.5
20260902013547 73 292 1.0 2.0 0.00 0.00 0.00 9 1014.8
20260902013119 73 270 2.0 2.0 0.00 0.00 0.00 9 1014.6
20260902012655 74 292 2.0 2.0 0.00 0.00 0.00 9 1014.8
20260902012316 74 292 2.0 2.0 0.00 0.00 0.00 9 1014.8
20260902012309 74 292 2.0 3.0 0.00 0.00 0.00 9 1015.0
20260902011853 74 292 2.0 2.0 0.00 0.00 0.00 9 1015.0
20260902011438 73 292 3.0 3.0 0.00 0.00 0.00 9 1014.9
20260902011009 73 270 2.0 3.0 0.00 0.00 0.00 9 1015.0
20260902010608 73 270 3.0 3.0 0.00 0.00 0.00 9 1015.0
20260902010551 73 292 2.0 3.0 0.00 0.00 0.00 9 1014.8
20260902010124 73 292 1.0 2.0 0.00 0.00 0.00 9 1014.9
20260902005702 73 292 2.0 3.0 0.00 0.00 0.00 9 1014.8
20260902005659 73 292 2.0 3.0 0.00 0.00 0.00 9 1014.8
20260902005426 73 315 2.0 2.0 0.00 0.00 0.00 9 1014.8
20260902005320 73 315 2.0 3.0 0.00 0.00 0.00 9 1014.8
20260902004949 73 292 3.0 4.0 0.00 0.00 0.00 9 1014.8
20260902004508 73 292 3.0 4.0 0.00 0.00 0.00 9 1014.9
20260902004435 73 292 3.0 6.0 0.00 0.00 0.00 9 1014.8
20260902004042 73 292 3.0 6.0 0.00 0.00 0.00 9 1014.9
20260902003603 73 292 3.0 4.0 0.00 0.00 0.00 9 1014.8
20260902003546 73 292 3.0 4.0 0.00 0.00 0.00 9 1014.9
20260902003119 73 292 3.0 4.0 0.00 0.00 0.00 9 1014.9
20260902002656 73 292 3.0 3.0 0.00 0.00 0.00 9 1015.0
20260902002654 73 292 3.0 3.0 0.00 0.00 0.00 9 1015.0
20260902002442 74 292 3.0 3.0 0.00 0.00 0.00 9 1015.0
20260902001946 74 292 3.0 6.0 0.00 0.00 0.00 9 1014.9
20260902001503 74 292 3.0 3.0 0.00 0.00 0.00 9 1014.9
20260902001039 74 292 3.0 4.0 0.00 0.00 0.00 9 1015.0
20260902000609 74 292 3.0 4.0 0.00 0.00 0.00 9 1014.9
20260902000124 74 292 3.0 3.0 0.00 0.00 0.00 9 1015.0
20260901235659 74 315 3.0 4.0 0.00 0.00 0.00 9 1015.0
20260901235454 74 315 3.0 4.0 0.00 0.00 0.00 9 1015.0
20260901235052 73 292 3.0 3.0 0.00 0.00 0.00 9 1014.9
20260901234632 73 292 3.0 3.0 0.00 0.00 0.00 9 1015.1
20260901234140 73 292 2.0 3.0 0.00 0.00 0.00 9 1015.0
20260901233649 73 292 2.0 2.0 0.00 0.00 0.00 9 1015.0
20260901233202 73 292 2.0 2.0 0.00 0.00 0.00 9 1014.9
20260901232751 73 292 1.0 2.0 0.00 0.00 0.00 9 1015.0
20260901232454 73 292 1.0 2.0 0.00 0.00 0.00 9 1014.9
20260901232411 73 292 1.0 2.0 0.00 0.00 0.00 9 1014.9
20260901231918 73 292 2.0 2.0 0.00 0.00 0.00 9 1015.0
20260901231507 73 292 2.0 2.0 0.00 0.00 0.00 9 1015.0
20260901231443 73 292 1.0 2.0 0.00 0.00 0.00 9 1015.0
20260901231018 73 292 2.0 2.0 0.00 0.00 0.00 9 1015.0
20260901230649 73 292 2.0 3.0 0.00 0.00 0.00 9 1015.1
20260901230603 73 292 2.0 3.0 0.00 0.00 0.00 9 1015.1
20260901230155 73 292 2.0 2.0 0.00 0.00 0.00 9 1015.1
20260901225703 74 292 2.0 2.0 0.00 0.00 0.00 9 1015.0
20260901225420 74 292 1.0 2.0 0.00 0.00 0.00 9 1015.1
20260901224932 74 0 0.0 0.0 0.00 0.00 0.00 9 1014.9
20260901224510 73 0 0.0 2.0 0.00 0.00 0.00 9 1015.0
20260901224044 74 0 0.0 1.0 0.00 0.00 0.00 9 1014.9
20260901223610 74 0 0.0 0.0 0.00 0.00 0.00 9 1014.9
20260901223552 74 0 0.0 0.0 0.00 0.00 0.00 9 1014.9
20260901223142 74 0 0.0 0.0 0.00 0.00 0.00 9 1014.9
20260901222735 74 315 0.0 1.0 0.00 0.00 0.00 9 1014.9
20260901222401 74 292 1.0 2.0 0.00 0.00 0.00 9 1014.9
20260901221910 74 292 3.0 3.0 0.00 0.00 0.00 9 1014.8
20260901221441 74 292 2.0 2.0 0.00 0.00 0.00 9 1014.7
20260901221028 74 270 2.0 2.0 0.00 0.00 0.00 9 1014.8
20260901220618 74 270 2.0 2.0 0.00 0.00 0.00 9 1014.7
20260901220549 74 270 1.0 2.0 0.00 0.00 0.00 9 1014.8
20260901220125 75 0 0.0 0.0 0.00 0.00 0.00 9 1014.6
20260901215659 75 0 0.0 0.0 0.00 0.00 0.00 9 1014.8
20260901215353 75 0 0.0 0.0 0.00 0.00 0.00 9 1014.7
20260901214934 75 0 0.0 0.0 0.00 0.00 0.00 9 1014.6
20260901214645 74 0 0.0 0.0 0.00 0.00 0.00 9 1014.6
20260901214515 74 0 0.0 1.0 0.00 0.00 0.00 9 1014.8
20260901214030 75 0 0.0 0.0 0.00 0.00 0.00 9 1014.8
20260901213646 75 0 0.0 0.0 0.00 0.00 0.00 9 1014.8
20260901213614 75 0 0.0 0.0 0.00 0.00 0.00 9 1014.8
20260901213149 75 0 0.0 0.0 0.00 0.00 0.00 9 1014.6
20260901212656 75 0 0.0 0.0 0.00 0.00 0.00 9 1014.7
20260901212654 75 0 0.0 0.0 0.00 0.00 0.00 9 1014.7
20260901212433 75 0 0.0 0.0 0.00 0.00 0.00 9 1014.7
20260901211935 74 0 0.0 1.0 0.00 0.00 0.00 9 1014.8
20260901211641 75 0 0.0 0.0 0.00 0.00 0.00 9 1014.7
20260901211452 75 270 0.0 1.0 0.00 0.00 0.00 9 1014.8
20260901211028 75 270 1.0 2.0 0.00 0.00 0.00 9 1014.8
20260901210642 75 292 1.0 2.0 0.00 0.00 0.00 9 1014.8
20260901210609 75 292 1.0 2.0 0.00 0.00 0.00 9 1014.8
20260901210144 75 270 2.0 2.0 0.00 0.00 0.00 9 1014.8
20260901205653 75 292 2.0 2.0 0.00 0.00 0.00 9 1014.7
20260901205650 75 292 2.0 2.0 0.00 0.00 0.00 9 1014.7
20260901205314 75 292 2.0 3.0 0.00 0.00 0.00 9 1014.7
20260901205307 75 270 2.0 3.0 0.00 0.00 0.00 9 1014.8
20260901204845 75 270 3.0 3.0 0.00 0.00 0.00 9 1014.7
20260901204432 75 270 3.0 3.0 0.00 0.00 0.00 9 1014.5
20260901204002 75 180 2.0 3.0 0.00 0.00 0.00 9 1014.6
20260901203601 76 180 1.0 2.0 0.00 0.00 0.00 9 1014.6
20260901203544 76 180 1.0 2.0 0.00 0.00 0.00 9 1014.5
20260901203117 76 180 2.0 3.0 0.00 0.00 0.00 9 1014.6
20260901202655 76 0 0.0 0.0 0.00 0.00 0.00 9 1014.3
20260901202652 76 0 0.0 0.0 0.00 0.00 0.00 9 1014.3
20260901202257 76 0 0.0 0.0 0.00 0.00 0.00 9 1014.3
20260901201852 77 0 0.0 0.0 0.00 0.00 0.00 8 1014.3
20260901201438 77 0 0.0 0.0 0.00 0.00 0.00 8 1014.3
20260901201007 77 0 0.0 0.0 0.00 0.00 0.00 8 1014.5
20260901200549 77 0 0.0 0.0 0.00 0.00 0.00 8 1014.4
20260901200122 78 90 0.0 2.0 0.00 0.00 0.00 8 1014.2
20260901195657 77 135 1.0 2.0 0.00 0.00 0.00 8 1014.2
20260901195500 77 0 0.0 0.0 0.00 0.00 0.00 8 1014.2
20260901195404 77 0 0.0 1.0 0.00 0.00 0.00 8 1014.2
20260901194909 78 90 0.0 2.0 0.00 0.00 0.00 8 1014.1
20260901194535 77 112 1.0 3.0 0.00 0.00 0.00 8 1013.7
20260901194435 77 90 2.0 3.0 0.00 0.00 0.00 8 1013.6
20260901194034 77 112 3.0 4.0 0.00 0.00 0.00 8 1013.7
20260901193647 77 0 0.0 0.0 0.00 0.00 0.00 8 1013.8
20260901193613 77 0 0.0 0.0 0.00 0.00 0.00 8 1013.8
20260901193149 77 0 0.0 0.0 0.00 0.00 0.00 8 1013.8
20260901192654 77 0 0.0 0.0 0.00 0.00 0.00 8 1013.6
20260901192438 77 0 0.0 1.0 0.00 0.00 0.00 8 1013.8
20260901191955 77 90 1.0 2.0 0.00 0.00 0.00 8 1013.3
20260901191508 78 112 3.0 4.0 0.00 0.00 0.00 8 1013.3
20260901191036 77 90 2.0 4.0 0.00 0.00 0.00 8 1013.4
20260901190618 78 90 1.0 3.0 0.00 0.00 0.00 8 1013.4
20260901190153 78 112 2.0 4.0 0.00 0.00 0.00 8 1013.4
20260901185658 78 90 3.0 6.0 0.00 0.00 0.00 8 1013.1
20260901185413 78 90 3.0 6.0 0.00 0.00 0.00 8 1013.2
20260901184946 78 90 3.0 6.0 0.00 0.00 0.00 8 1013.1
20260901184534 78 90 3.0 3.0 0.00 0.00 0.00 8 1012.9
20260901184102 78 112 3.0 4.0 0.00 0.00 0.00 8 1012.9
20260901183701 78 90 6.0 9.0 0.00 0.00 0.00 8 1012.9
20260901183218 78 112 5.0 6.0 0.00 0.00 0.00 8 1013.0
20260901182753 78 90 3.0 6.0 0.00 0.00 0.00 8 1012.8
20260901182433 78 112 4.0 6.0 0.00 0.00 0.00 8 1012.8
20260901181938 79 112 5.0 6.0 0.00 0.00 0.00 8 1012.8
20260901181519 79 90 3.0 6.0 0.00 0.00 0.00 8 1012.9
20260901181036 79 90 4.0 6.0 0.00 0.00 0.00 8 1013.0
20260901180619 79 67 6.0 10.0 0.00 0.00 0.00 8 1012.9
20260901180153 79 90 5.0 6.0 0.00 0.00 0.00 8 1013.1
20260901175659 79 67 3.0 6.0 0.00 0.00 0.00 8 1013.2
20260901175555 79 67 3.0 6.0 0.00 0.00 0.00 8 1013.2
20260901175446 79 67 3.0 6.0 0.00 0.00 0.00 8 1012.9
20260901174949 79 90 6.0 8.0 0.00 0.00 0.00 8 1012.9
20260901174656 79 90 6.0 9.0 0.00 0.00 0.00 8 1013.1
20260901174507 79 90 4.0 6.0 0.00 0.00 0.00 8 1013.1
20260901174043 79 90 5.0 8.0 0.00 0.00 0.00 8 1013.1
20260901173655 79 90 6.0 9.0 0.00 0.00 0.00 8 1013.2
20260901173624 79 90 6.0 9.0 0.00 0.00 0.00 8 1013.2
20260901173159 79 90 6.0 9.0 0.00 0.00 0.00 8 1013.1
20260901172706 80 135 6.0 8.0 0.00 0.00 0.00 8 1013.0
20260901172704 80 135 6.0 8.0 0.00 0.00 0.00 8 1013.0
20260901172409 80 135 6.0 8.0 0.00 0.00 0.00 8 1013.1
20260901172259 80 135 6.0 8.0 0.00 0.00 0.00 8 1012.9
20260901171833 80 135 6.0 8.0 0.00 0.00 0.00 8 1013.0
20260901171429 80 67 4.0 6.0 0.00 0.00 0.00 8 1013.1
20260901171008 80 112 7.0 10.0 0.00 0.00 0.00 8 1013.1
20260901170515 80 112 7.0 11.0 0.00 0.00 0.00 8 1013.0
20260901165656 80 135 9.0 11.0 0.00 0.00 0.00 8 1013.0
20260901165409 80 90 9.0 11.0 0.00 0.00 0.00 8 1013.0
20260901165353 81 67 7.0 11.0 0.00 0.00 0.00 8 1013.1
20260901164958 81 90 6.0 10.0 0.00 0.00 0.00 8 1013.0
20260901164518 81 67 4.0 6.0 0.00 0.00 0.00 8 1013.0
20260901164100 81 90 9.0 13.0 0.00 0.00 0.00 8 1013.1
20260901163640 81 90 5.0 8.0 0.00 0.00 0.00 8 1013.0
20260901163214 81 90 6.0 10.0 0.00 0.00 0.00 8 1012.9
20260901162750 81 112 9.0 13.0 0.00 0.00 0.00 8 1012.8
20260901162352 80 90 11.0 15.0 0.00 0.00 0.00 8 1013.0
20260901161948 81 67 9.0 12.0 0.00 0.00 0.00 8 1013.0
20260901161508 81 45 6.0 12.0 0.00 0.00 0.00 8 1013.0
20260901161045 80 67 9.0 12.0 0.00 0.00 0.00 8 1012.9
20260901160604 81 90 9.0 13.0 0.00 0.00 0.00 8 1013.0
20260901160120 81 67 11.0 13.0 0.00 0.00 0.00 8 1013.0
20260901155655 81 90 9.0 11.0 0.00 0.00 0.00 8 1013.1
20260901155543 81 90 9.0 11.0 0.00 0.00 0.00 8 1013.1
20260901155124 80 45 6.0 8.0 0.00 0.00 0.00 8 1012.8
20260901154702 80 90 7.0 12.0 0.00 0.00 0.00 8 1012.4
20260901154237 80 67 12.0 17.0 0.00 0.00 0.00 8 1012.2
20260901153819 80 112 12.0 15.0 0.00 0.00 0.00 8 1012.4
20260901153354 80 112 8.0 12.0 0.00 0.00 0.00 8 1012.6
20260901152859 79 112 8.0 11.0 0.00 0.00 0.00 8 1013.3
20260901152435 79 67 9.0 10.0 0.00 0.00 0.00 8 1013.7
20260901152002 79 67 6.0 10.0 0.00 0.00 0.00 8 1013.8
20260901151511 80 90 6.0 10.0 0.00 0.00 0.00 8 1013.7
20260901151040 80 112 6.0 11.0 0.00 0.00 0.00 8 1013.5
20260901150622 80 90 9.0 13.0 0.00 0.00 0.00 8 1013.3
20260901150157 80 90 8.0 15.0 0.00 0.00 0.00 8 1013.4
20260901145702 81 90 6.0 9.0 0.00 0.00 0.00 8 1013.9
20260901145332 81 90 5.0 8.0 0.00 0.00 0.00 8 1013.9
20260901145217 81 112 4.0 6.0 0.00 0.00 0.00 8 1013.9
20260901144836 81 67 3.0 4.0 0.00 0.00 0.00 7 1014.2
20260901144422 81 67 5.0 6.0 0.00 0.00 0.00 7 1014.2
20260901144254 81 90 5.0 9.0 0.00 0.00 0.00 7 1014.0
20260901143947 81 90 3.0 6.0 0.00 0.00 0.00 7 1014.1
20260901143451 81 112 6.0 10.0 0.00 0.00 0.00 7 1013.9
20260901143023 82 67 4.0 6.0 0.00 0.00 0.00 7 1013.9
20260901142613 81 67 6.0 9.0 0.00 0.00 0.00 7 1013.9
20260901142310 82 112 6.0 10.0 0.00 0.00 0.00 7 1014.0
20260901142153 82 90 6.0 11.0 0.00 0.00 0.00 7 1013.9
20260901141722 82 90 7.0 11.0 0.00 0.00 0.00 7 1013.6
20260901141443 82 90 8.0 11.0 0.00 0.00 0.00 7 1013.6
20260901141230 82 112 6.0 11.0 0.00 0.00 0.00 7 1013.5
20260901140750 82 135 6.0 10.0 0.00 0.00 0.00 8 1014.1
20260901140523 82 112 6.0 10.0 0.00 0.00 0.00 8 1014.3
20260901140251 82 90 5.0 9.0 0.00 0.00 0.00 8 1014.6
20260901135826 81 112 9.0 12.0 0.00 0.00 0.00 7 1014.4
20260901135627 81 90 9.0 13.0 0.00 0.00 0.00 7 1014.4
20260901135407 81 112 9.0 12.0 0.00 0.00 0.00 7 1014.4
20260901134929 81 67 6.0 10.0 0.00 0.00 0.00 7 1014.6
20260901134653 81 135 7.0 10.0 0.00 0.00 0.00 7 1014.7
20260901134505 81 112 6.0 9.0 0.00 0.00 0.00 7 1014.8
20260901134040 82 90 5.0 9.0 0.00 0.00 0.00 7 1015.0
20260901133653 83 112 3.0 6.0 0.00 0.00 0.00 7 1014.9
20260901133621 83 112 3.0 6.0 0.00 0.00 0.00 7 1014.9
20260901133156 82 90 4.0 6.0 0.00 0.00 0.00 7 1014.8
20260901132701 82 90 5.0 9.0 0.00 0.00 0.00 7 1015.1
20260901132312 82 45 7.0 9.0 0.00 0.00 0.00 7 1015.1
20260901131850 82 112 6.0 9.0 0.00 0.00 0.00 7 1015.0
20260901131436 82 90 7.0 11.0 0.00 0.00 0.00 7 1014.8
20260901131007 82 67 6.0 10.0 0.00 0.00 0.00 7 1015.1
20260901130548 82 67 3.0 6.0 0.00 0.00 0.00 7 1015.2
20260901130122 82 90 7.0 10.0 0.00 0.00 0.00 7 1015.0